| time (UTC) | temp F | wind direction | speed MPH | gust MPH | rain 1hr in | rain 24hr in | rain mn in | humidity % | barometer mb |
| 20260504223545 | 99 | 190 | 0.0 | 8.0 | 0.00 | 0.00 | 0.00 | 23 | 1005.9 |
| 20260504223101 | 100 | 0 | 4.0 | 8.0 | 0.00 | 0.00 | 0.00 | 23 | 1006.1 |
| 20260504223045 | 100 | 190 | 3.0 | 8.0 | 0.00 | 0.00 | 0.00 | 23 | 1006.1 |
| 20260504222544 | 100 | 190 | 3.0 | 7.0 | 0.00 | 0.00 | 0.00 | 23 | 1006.2 |
| 20260504222043 | 100 | 190 | 3.0 | 10.0 | 0.00 | 0.00 | 0.00 | 23 | 1006.2 |
| 20260504221558 | 100 | 190 | 2.0 | 10.0 | 0.00 | 0.00 | 0.00 | 23 | 1006.3 |
| 20260504221554 | 100 | 190 | 1.0 | 10.0 | 0.00 | 0.00 | 0.00 | 23 | 1006.3 |
| 20260504221042 | 100 | 190 | 0.0 | 5.0 | 0.00 | 0.00 | 0.00 | 24 | 1006.3 |
| 20260504220541 | 100 | 190 | 0.0 | 9.0 | 0.00 | 0.00 | 0.00 | 24 | 1006.3 |
| 20260504220107 | 99 | 190 | 3.0 | 9.0 | 0.00 | 0.00 | 0.00 | 24 | 1006.4 |
| 20260504220041 | 99 | 190 | 1.0 | 9.0 | 0.00 | 0.00 | 0.00 | 24 | 1006.4 |
| 20260504215543 | 99 | 190 | 0.0 | 7.0 | 0.00 | 0.00 | 0.00 | 24 | 1006.3 |
| 20260504215042 | 99 | 190 | 1.0 | 5.0 | 0.00 | 0.00 | 0.00 | 25 | 1006.5 |
| 20260504214605 | 99 | 190 | 1.0 | 10.0 | 0.00 | 0.00 | 0.00 | 24 | 1006.6 |
| 20260504214537 | 99 | 190 | 1.0 | 10.0 | 0.00 | 0.00 | 0.00 | 25 | 1006.6 |
| 20260504214037 | 99 | 190 | 4.0 | 10.0 | 0.00 | 0.00 | 0.00 | 24 | 1006.6 |
| 20260504213536 | 99 | 190 | 1.0 | 5.0 | 0.00 | 0.00 | 0.00 | 25 | 1006.6 |
| 20260504213100 | 99 | 0 | 0.0 | 11.0 | 0.00 | 0.00 | 0.00 | 24 | 1006.7 |
| 20260504213041 | 99 | 190 | 0.0 | 7.0 | 0.00 | 0.00 | 0.00 | 25 | 1006.8 |
| 20260504212534 | 99 | 190 | 0.0 | 13.0 | 0.00 | 0.00 | 0.00 | 25 | 1007.0 |
| 20260504212035 | 99 | 190 | 4.0 | 13.0 | 0.00 | 0.00 | 0.00 | 25 | 1007.1 |
| 20260504211556 | 99 | 190 | 2.0 | 12.0 | 0.00 | 0.00 | 0.00 | 25 | 1007.1 |
| 20260504211533 | 99 | 190 | 2.0 | 12.0 | 0.00 | 0.00 | 0.00 | 25 | 1007.1 |
| 20260504211032 | 99 | 190 | 4.0 | 12.0 | 0.00 | 0.00 | 0.00 | 25 | 1007.3 |
| 20260504210532 | 99 | 190 | 2.0 | 8.0 | 0.00 | 0.00 | 0.00 | 26 | 1007.2 |
| 20260504210106 | 98 | 190 | 3.0 | 8.0 | 0.00 | 0.00 | 0.00 | 25 | 1007.4 |
| 20260504210031 | 98 | 190 | 3.0 | 7.0 | 0.00 | 0.00 | 0.00 | 26 | 1007.3 |
| 20260504205530 | 98 | 190 | 2.0 | 8.0 | 0.00 | 0.00 | 0.00 | 26 | 1007.5 |
| 20260504205029 | 99 | 190 | 1.0 | 7.0 | 0.00 | 0.00 | 0.00 | 27 | 1007.7 |
| 20260504204625 | 98 | 190 | 3.0 | 7.0 | 0.00 | 0.00 | 0.00 | 26 | 1007.7 |
| 20260504204528 | 98 | 190 | 1.0 | 7.0 | 0.00 | 0.00 | 0.00 | 27 | 1007.7 |
| 20260504204026 | 98 | 190 | 1.0 | 8.0 | 0.00 | 0.00 | 0.00 | 27 | 1007.7 |
| 20260504203525 | 98 | 190 | 3.0 | 9.0 | 0.00 | 0.00 | 0.00 | 27 | 1007.8 |
| 20260504203134 | 98 | 190 | 2.0 | 7.0 | 0.00 | 0.00 | 0.00 | 27 | 1008.0 |
| 20260504203028 | 98 | 190 | 1.0 | 7.0 | 0.00 | 0.00 | 0.00 | 28 | 1008.0 |
| 20260504202523 | 98 | 190 | 1.0 | 8.0 | 0.00 | 0.00 | 0.00 | 28 | 1008.1 |
| 20260504202022 | 98 | 190 | 2.0 | 8.0 | 0.00 | 0.00 | 0.00 | 28 | 1008.3 |
| 20260504201559 | 97 | 190 | 2.0 | 10.0 | 0.00 | 0.00 | 0.00 | 28 | 1008.4 |
| 20260504201520 | 97 | 190 | 2.0 | 10.0 | 0.00 | 0.00 | 0.00 | 29 | 1008.3 |
| 20260504201019 | 97 | 190 | 5.0 | 10.0 | 0.00 | 0.00 | 0.00 | 28 | 1008.5 |
| 20260504200518 | 96 | 190 | 0.0 | 8.0 | 0.00 | 0.00 | 0.00 | 29 | 1008.6 |
| 20260504200057 | 97 | 190 | 4.0 | 10.0 | 0.00 | 0.00 | 0.00 | 28 | 1008.9 |
| 20260504200019 | 97 | 190 | 4.0 | 10.0 | 0.00 | 0.00 | 0.00 | 29 | 1008.7 |
| 20260504195516 | 97 | 190 | 6.0 | 10.0 | 0.00 | 0.00 | 0.00 | 28 | 1008.7 |
| 20260504195015 | 96 | 190 | 3.0 | 9.0 | 0.00 | 0.00 | 0.00 | 29 | 1008.7 |
| 20260504194559 | 96 | 190 | 2.0 | 9.0 | 0.00 | 0.00 | 0.00 | 29 | 1009.0 |
| 20260504194514 | 96 | 190 | 1.0 | 9.0 | 0.00 | 0.00 | 0.00 | 29 | 1008.9 |
| 20260504194013 | 96 | 190 | 2.0 | 9.0 | 0.00 | 0.00 | 0.00 | 29 | 1009.0 |
| 20260504193512 | 96 | 190 | 2.0 | 9.0 | 0.00 | 0.00 | 0.00 | 29 | 1009.1 |
| 20260504193056 | 96 | 190 | 4.0 | 10.0 | 0.00 | 0.00 | 0.00 | 30 | 1009.4 |
| 20260504193012 | 95 | 190 | 4.0 | 10.0 | 0.00 | 0.00 | 0.00 | 30 | 1009.2 |
| 20260504192508 | 95 | 190 | 3.0 | 10.0 | 0.00 | 0.00 | 0.00 | 31 | 1009.4 |
| 20260504192007 | 95 | 190 | 1.0 | 10.0 | 0.00 | 0.00 | 0.00 | 31 | 1009.4 |
| 20260504191604 | 95 | 190 | 4.0 | 13.0 | 0.00 | 0.00 | 0.00 | 30 | 1009.6 |
| 20260504191507 | 95 | 190 | 4.0 | 13.0 | 0.00 | 0.00 | 0.00 | 31 | 1009.7 |
| 20260504191005 | 95 | 190 | 4.0 | 13.0 | 0.00 | 0.00 | 0.00 | 31 | 1009.8 |
| 20260504190506 | 95 | 190 | 4.0 | 11.0 | 0.00 | 0.00 | 0.00 | 32 | 1009.9 |
| 20260504190058 | 94 | 190 | 4.0 | 9.0 | 0.00 | 0.00 | 0.00 | 31 | 1009.9 |
| 20260504190004 | 94 | 190 | 4.0 | 9.0 | 0.00 | 0.00 | 0.00 | 32 | 1010.1 |
| 20260504185502 | 94 | 190 | 2.0 | 9.0 | 0.00 | 0.00 | 0.00 | 33 | 1010.2 |
| 20260504185101 | 94 | 190 | 1.0 | 12.0 | 0.00 | 0.00 | 0.00 | 33 | 1010.3 |
| 20260504184603 | 94 | 190 | 5.0 | 12.0 | 0.00 | 0.00 | 0.00 | 33 | 1010.5 |
| 20260504184058 | 94 | 190 | 2.0 | 8.0 | 0.00 | 0.00 | 0.00 | 33 | 1010.5 |
| 20260504183557 | 94 | 190 | 2.0 | 6.0 | 0.00 | 0.00 | 0.00 | 34 | 1010.7 |
| 20260504183105 | 93 | 0 | 2.0 | 7.0 | 0.00 | 0.00 | 0.00 | 34 | 1010.8 |
| 20260504182555 | 93 | 190 | 0.0 | 7.0 | 0.00 | 0.00 | 0.00 | 34 | 1011.0 |
| 20260504182057 | 93 | 190 | 3.0 | 7.0 | 0.00 | 0.00 | 0.00 | 34 | 1011.1 |
| 20260504181557 | 94 | 190 | 1.0 | 9.0 | 0.00 | 0.00 | 0.00 | 34 | 1011.0 |
| 20260504181052 | 93 | 190 | 1.0 | 9.0 | 0.00 | 0.00 | 0.00 | 35 | 1011.3 |
| 20260504180551 | 93 | 190 | 1.0 | 9.0 | 0.00 | 0.00 | 0.00 | 35 | 1011.4 |
| 20260504180119 | 92 | 190 | 3.0 | 9.0 | 0.00 | 0.00 | 0.00 | 36 | 1011.2 |
| 20260504180050 | 92 | 190 | 3.0 | 9.0 | 0.00 | 0.00 | 0.00 | 36 | 1011.5 |
| 20260504175552 | 92 | 190 | 4.0 | 8.0 | 0.00 | 0.00 | 0.00 | 36 | 1011.6 |
| 20260504175049 | 92 | 190 | 0.0 | 5.0 | 0.00 | 0.00 | 0.00 | 35 | 1011.8 |
| 20260504174557 | 91 | 0 | 0.0 | 10.0 | 0.00 | 0.00 | 0.00 | 35 | 1011.6 |
| 20260504174546 | 91 | 190 | 0.0 | 7.0 | 0.00 | 0.00 | 0.00 | 36 | 1011.9 |
| 20260504174045 | 91 | 190 | 1.0 | 10.0 | 0.00 | 0.00 | 0.00 | 36 | 1012.0 |
| 20260504173544 | 91 | 190 | 3.0 | 9.0 | 0.00 | 0.00 | 0.00 | 36 | 1012.1 |
| 20260504173110 | 92 | 190 | 2.0 | 5.0 | 0.00 | 0.00 | 0.00 | 36 | 1011.8 |
| 20260504173044 | 91 | 190 | 2.0 | 6.0 | 0.00 | 0.00 | 0.00 | 36 | 1012.1 |
| 20260504172541 | 90 | 190 | 0.0 | 5.0 | 0.00 | 0.00 | 0.00 | 37 | 1012.2 |
| 20260504172041 | 90 | 190 | 0.0 | 7.0 | 0.00 | 0.00 | 0.00 | 37 | 1012.3 |
| 20260504171612 | 90 | 190 | 3.0 | 10.0 | 0.00 | 0.00 | 0.00 | 36 | 1012.0 |
| 20260504171540 | 90 | 190 | 1.0 | 7.0 | 0.00 | 0.00 | 0.00 | 37 | 1012.3 |
| 20260504171040 | 90 | 190 | 0.0 | 10.0 | 0.00 | 0.00 | 0.00 | 37 | 1012.5 |
| 20260504170541 | 90 | 190 | 3.0 | 10.0 | 0.00 | 0.00 | 0.00 | 37 | 1012.6 |
| 20260504160110 | 87 | 0 | 0.0 | 5.0 | 0.00 | 0.00 | 0.00 | 42 | 1013.3 |
| 20260504151023 | 83 | 190 | 0.0 | 0.0 | 0.00 | 0.00 | 0.00 | 49 | 1014.0 |
| 20260504150521 | 83 | 190 | 0.0 | 0.0 | 0.00 | 0.00 | 0.00 | 49 | 1014.0 |
| 20260504150104 | 83 | 0 | 0.0 | 0.0 | 0.00 | 0.00 | 0.00 | 48 | 1013.6 |
| 20260504141013 | 79 | 190 | 0.0 | 2.0 | 0.00 | 0.00 | 0.00 | 56 | 1014.2 |
| 20260504140513 | 79 | 190 | 0.0 | 2.0 | 0.00 | 0.00 | 0.00 | 58 | 1014.2 |
| 20260504130507 | 76 | 190 | 0.0 | 0.0 | 0.00 | 0.00 | 0.00 | 60 | 1013.6 |
| 20260504130105 | 76 | 0 | 0.0 | 0.0 | 0.00 | 0.00 | 0.00 | 61 | 1013.0 |
| 20260504110555 | 76 | 190 | 0.0 | 0.0 | 0.00 | 0.00 | 0.00 | 57 | 1012.4 |
| 20260504100547 | 77 | 190 | 0.0 | 0.0 | 0.00 | 0.00 | 0.00 | 52 | 1012.3 |
| 20260504081559 | 80 | 0 | 0.0 | 0.0 | 0.00 | 0.00 | 0.00 | 45 | 1012.2 |
| 20260504081533 | 80 | 190 | 0.0 | 0.0 | 0.00 | 0.00 | 0.00 | 46 | 1012.8 |
| 20260504081035 | 80 | 190 | 0.0 | 0.0 | 0.00 | 0.00 | 0.00 | 46 | 1012.9 |
| 20260504080532 | 80 | 190 | 0.0 | 0.0 | 0.00 | 0.00 | 0.00 | 46 | 1012.9 |
| 20260504060105 | 83 | 0 | 0.0 | 0.0 | 0.00 | 0.00 | 0.00 | 39 | 1012.8 |
| 20260504050520 | 84 | 190 | 0.0 | 5.0 | 0.00 | 0.00 | 0.00 | 37 | 1013.2 |
| 20260504050020 | 84 | 190 | 1.0 | 8.0 | 0.00 | 0.00 | 0.00 | 37 | 1013.2 |
| 20260504045519 | 85 | 190 | 0.0 | 8.0 | 0.00 | 0.00 | 0.00 | 37 | 1013.2 |
| 20260504045019 | 84 | 190 | 1.0 | 5.0 | 0.00 | 0.00 | 0.00 | 37 | 1013.1 |
| 20260504044558 | 85 | 0 | 0.0 | 4.0 | 0.00 | 0.00 | 0.00 | 37 | 1012.5 |
| 20260504044522 | 84 | 190 | 0.0 | 4.0 | 0.00 | 0.00 | 0.00 | 37 | 1013.1 |
| 20260504044019 | 85 | 190 | 0.0 | 4.0 | 0.00 | 0.00 | 0.00 | 37 | 1012.9 |
| 20260504043518 | 85 | 190 | 0.0 | 0.0 | 0.00 | 0.00 | 0.00 | 38 | 1012.9 |
| 20260504043101 | 85 | 0 | 0.0 | 2.0 | 0.00 | 0.00 | 0.00 | 38 | 1012.4 |
| 20260504043021 | 85 | 190 | 0.0 | 2.0 | 0.00 | 0.00 | 0.00 | 38 | 1012.9 |
| 20260504042518 | 85 | 190 | 0.0 | 2.0 | 0.00 | 0.00 | 0.00 | 38 | 1012.9 |
| 20260504042017 | 85 | 190 | 0.0 | 0.0 | 0.00 | 0.00 | 0.00 | 38 | 1012.7 |
| 20260504041602 | 86 | 0 | 0.0 | 0.0 | 0.00 | 0.00 | 0.00 | 37 | 1012.2 |
| 20260504041518 | 86 | 190 | 0.0 | 0.0 | 0.00 | 0.00 | 0.00 | 37 | 1012.7 |
| 20260504041017 | 86 | 190 | 0.0 | 3.0 | 0.00 | 0.00 | 0.00 | 37 | 1012.6 |
| 20260504040517 | 86 | 190 | 0.0 | 3.0 | 0.00 | 0.00 | 0.00 | 37 | 1012.6 |
| 20260504040100 | 86 | 0 | 0.0 | 4.0 | 0.00 | 0.00 | 0.00 | 36 | 1012.0 |
| 20260504040018 | 86 | 190 | 0.0 | 0.0 | 0.00 | 0.00 | 0.00 | 37 | 1012.5 |
| 20260504035519 | 86 | 190 | 0.0 | 4.0 | 0.00 | 0.00 | 0.00 | 36 | 1012.4 |
| 20260504035120 | 86 | 190 | 0.0 | 4.0 | 0.00 | 0.00 | 0.00 | 36 | 1012.3 |
| 20260504034620 | 86 | 0 | 0.0 | 2.0 | 0.00 | 0.00 | 0.00 | 36 | 1011.7 |
| 20260504034517 | 86 | 190 | 0.0 | 0.0 | 0.00 | 0.00 | 0.00 | 36 | 1012.3 |
| 20260504034016 | 87 | 190 | 0.0 | 2.0 | 0.00 | 0.00 | 0.00 | 36 | 1012.1 |
| 20260504033518 | 87 | 190 | 0.0 | 4.0 | 0.00 | 0.00 | 0.00 | 35 | 1012.1 |
| 20260504033057 | 87 | 0 | 0.0 | 4.0 | 0.00 | 0.00 | 0.00 | 35 | 1011.4 |
| 20260504033015 | 87 | 190 | 0.0 | 4.0 | 0.00 | 0.00 | 0.00 | 35 | 1011.9 |
| 20260504032518 | 87 | 190 | 0.0 | 4.0 | 0.00 | 0.00 | 0.00 | 35 | 1011.8 |
| 20260504032015 | 87 | 190 | 0.0 | 4.0 | 0.00 | 0.00 | 0.00 | 36 | 1011.7 |
| 20260504031558 | 87 | 0 | 0.0 | 0.0 | 0.00 | 0.00 | 0.00 | 35 | 1011.1 |
| 20260504031516 | 87 | 190 | 0.0 | 0.0 | 0.00 | 0.00 | 0.00 | 36 | 1011.5 |
| 20260504031016 | 87 | 190 | 0.0 | 1.0 | 0.00 | 0.00 | 0.00 | 36 | 1011.4 |
| 20260504030517 | 87 | 190 | 0.0 | 1.0 | 0.00 | 0.00 | 0.00 | 36 | 1011.3 |
| 20260504030059 | 87 | 0 | 0.0 | 0.0 | 0.00 | 0.00 | 0.00 | 35 | 1010.6 |
| 20260504030015 | 87 | 190 | 0.0 | 0.0 | 0.00 | 0.00 | 0.00 | 35 | 1011.1 |
| 20260504025515 | 87 | 190 | 0.0 | 2.0 | 0.00 | 0.00 | 0.00 | 35 | 1010.9 |
| 20260504025015 | 87 | 190 | 0.0 | 2.0 | 0.00 | 0.00 | 0.00 | 35 | 1010.8 |
| 20260504024558 | 88 | 0 | 0.0 | 3.0 | 0.00 | 0.00 | 0.00 | 34 | 1010.2 |
| 20260504024514 | 88 | 190 | 0.0 | 3.0 | 0.00 | 0.00 | 0.00 | 35 | 1010.7 |
| 20260504024014 | 88 | 190 | 0.0 | 0.0 | 0.00 | 0.00 | 0.00 | 35 | 1010.6 |
| 20260504023514 | 88 | 190 | 0.0 | 0.0 | 0.00 | 0.00 | 0.00 | 34 | 1010.4 |
| 20260504023059 | 89 | 0 | 0.0 | 0.0 | 0.00 | 0.00 | 0.00 | 33 | 1009.8 |
| 20260504023014 | 89 | 190 | 0.0 | 0.0 | 0.00 | 0.00 | 0.00 | 34 | 1010.2 |
| 20260504022514 | 89 | 190 | 0.0 | 3.0 | 0.00 | 0.00 | 0.00 | 33 | 1010.0 |
| 20260504022014 | 89 | 190 | 0.0 | 3.0 | 0.00 | 0.00 | 0.00 | 33 | 1009.7 |
| 20260504021558 | 89 | 0 | 0.0 | 2.0 | 0.00 | 0.00 | 0.00 | 32 | 1009.2 |
| 20260504021516 | 89 | 190 | 0.0 | 2.0 | 0.00 | 0.00 | 0.00 | 33 | 1009.6 |
| 20260504021013 | 90 | 190 | 0.0 | 2.0 | 0.00 | 0.00 | 0.00 | 33 | 1009.5 |
| 20260504020513 | 90 | 190 | 0.0 | 2.0 | 0.00 | 0.00 | 0.00 | 33 | 1009.3 |
| 20260504020129 | 90 | 0 | 0.0 | 4.0 | 0.00 | 0.00 | 0.00 | 32 | 1008.9 |
| 20260504020015 | 90 | 190 | 0.0 | 2.0 | 0.00 | 0.00 | 0.00 | 32 | 1009.1 |
| 20260504015513 | 90 | 190 | 0.0 | 4.0 | 0.00 | 0.00 | 0.00 | 32 | 1009.0 |
| 20260504015013 | 91 | 190 | 1.0 | 3.0 | 0.00 | 0.00 | 0.00 | 31 | 1008.9 |
| 20260504014602 | 91 | 190 | 0.0 | 3.0 | 0.00 | 0.00 | 0.00 | 31 | 1008.6 |
| 20260504014513 | 91 | 190 | 0.0 | 3.0 | 0.00 | 0.00 | 0.00 | 32 | 1008.8 |
| 20260504014013 | 91 | 190 | 0.0 | 3.0 | 0.00 | 0.00 | 0.00 | 32 | 1008.7 |
| 20260504013511 | 91 | 190 | 0.0 | 5.0 | 0.00 | 0.00 | 0.00 | 32 | 1008.8 |
| 20260504013136 | 91 | 0 | 1.0 | 5.0 | 0.00 | 0.00 | 0.00 | 31 | 1008.4 |
| 20260504013017 | 91 | 190 | 1.0 | 5.0 | 0.00 | 0.00 | 0.00 | 32 | 1008.7 |
| 20260504012511 | 91 | 190 | 2.0 | 6.0 | 0.00 | 0.00 | 0.00 | 32 | 1008.6 |
| 20260504012011 | 91 | 190 | 1.0 | 7.0 | 0.00 | 0.00 | 0.00 | 32 | 1008.4 |
| 20260504011559 | 91 | 190 | 3.0 | 8.0 | 0.00 | 0.00 | 0.00 | 31 | 1008.0 |
| 20260504011511 | 91 | 190 | 2.0 | 8.0 | 0.00 | 0.00 | 0.00 | 32 | 1008.4 |
| 20260504011011 | 91 | 190 | 4.0 | 8.0 | 0.00 | 0.00 | 0.00 | 32 | 1008.3 |
| 20260504010510 | 92 | 190 | 2.0 | 8.0 | 0.00 | 0.00 | 0.00 | 32 | 1008.2 |
| 20260504010011 | 92 | 190 | 4.0 | 8.0 | 0.00 | 0.00 | 0.00 | 32 | 1008.0 |
| 20260504005510 | 92 | 190 | 3.0 | 8.0 | 0.00 | 0.00 | 0.00 | 32 | 1007.9 |
| 20260504005010 | 92 | 190 | 2.0 | 8.0 | 0.00 | 0.00 | 0.00 | 32 | 1007.8 |
| 20260504004600 | 92 | 190 | 4.0 | 11.0 | 0.00 | 0.00 | 0.00 | 31 | 1007.5 |
| 20260504004510 | 92 | 190 | 4.0 | 11.0 | 0.00 | 0.00 | 0.00 | 32 | 1007.7 |
| 20260504004010 | 92 | 190 | 4.0 | 13.0 | 0.00 | 0.00 | 0.00 | 32 | 1007.7 |
| 20260504003509 | 92 | 190 | 5.0 | 14.0 | 0.00 | 0.00 | 0.00 | 32 | 1007.6 |
| 20260504003058 | 92 | 190 | 7.0 | 14.0 | 0.00 | 0.00 | 0.00 | 31 | 1007.3 |
| 20260504003009 | 92 | 190 | 6.0 | 14.0 | 0.00 | 0.00 | 0.00 | 32 | 1007.5 |
| 20260504002509 | 93 | 190 | 4.0 | 14.0 | 0.00 | 0.00 | 0.00 | 32 | 1007.3 |
| 20260504002009 | 93 | 190 | 4.0 | 14.0 | 0.00 | 0.00 | 0.00 | 31 | 1007.3 |
| 20260504001602 | 94 | 190 | 5.0 | 14.0 | 0.00 | 0.00 | 0.00 | 29 | 1007.0 |
| 20260504001509 | 94 | 190 | 6.0 | 14.0 | 0.00 | 0.00 | 0.00 | 30 | 1007.2 |
| 20260504001009 | 95 | 190 | 5.0 | 12.0 | 0.00 | 0.00 | 0.00 | 28 | 1007.1 |
| 20260504000509 | 95 | 190 | 2.0 | 6.0 | 0.00 | 0.00 | 0.00 | 27 | 1007.0 |
| 20260504000111 | 95 | 190 | 1.0 | 7.0 | 0.00 | 0.00 | 0.00 | 26 | 1006.9 |
| 20260504000024 | 95 | 190 | 1.0 | 6.0 | 0.00 | 0.00 | 0.00 | 27 | 1007.0 |
| 20260503235510 | 95 | 190 | 2.0 | 7.0 | 0.00 | 0.00 | 0.00 | 27 | 1007.0 |
| 20260503235008 | 95 | 190 | 3.0 | 7.0 | 0.00 | 0.00 | 0.00 | 26 | 1007.0 |
| 20260503234607 | 95 | 190 | 3.0 | 11.0 | 0.00 | 0.00 | 0.00 | 26 | 1006.9 |
| 20260503234508 | 95 | 190 | 2.0 | 7.0 | 0.00 | 0.00 | 0.00 | 26 | 1007.0 |
| 20260503234008 | 95 | 190 | 2.0 | 11.0 | 0.00 | 0.00 | 0.00 | 26 | 1007.0 |
| 20260503233507 | 96 | 190 | 4.0 | 11.0 | 0.00 | 0.00 | 0.00 | 26 | 1007.0 |
| 20260503233100 | 96 | 190 | 5.0 | 11.0 | 0.00 | 0.00 | 0.00 | 25 | 1006.8 |
| 20260503233009 | 96 | 190 | 5.0 | 11.0 | 0.00 | 0.00 | 0.00 | 26 | 1007.0 |
| 20260503232506 | 96 | 190 | 3.0 | 9.0 | 0.00 | 0.00 | 0.00 | 26 | 1006.9 |
| 20260503232006 | 96 | 190 | 3.0 | 10.0 | 0.00 | 0.00 | 0.00 | 26 | 1006.9 |
| 20260503231600 | 96 | 190 | 6.0 | 10.0 | 0.00 | 0.00 | 0.00 | 25 | 1006.7 |
| 20260503231506 | 96 | 190 | 5.0 | 10.0 | 0.00 | 0.00 | 0.00 | 25 | 1006.8 |
| 20260503231006 | 97 | 190 | 1.0 | 9.0 | 0.00 | 0.00 | 0.00 | 25 | 1006.8 |
| 20260503230506 | 97 | 190 | 4.0 | 10.0 | 0.00 | 0.00 | 0.00 | 25 | 1006.8 |
| 20260503230104 | 98 | 190 | 3.0 | 13.0 | 0.00 | 0.00 | 0.00 | 24 | 1006.7 |
| 20260503230008 | 98 | 190 | 3.0 | 13.0 | 0.00 | 0.00 | 0.00 | 25 | 1006.8 |
| 20260503225508 | 98 | 190 | 4.0 | 15.0 | 0.00 | 0.00 | 0.00 | 24 | 1006.8 |
| 20260503225009 | 99 | 190 | 4.0 | 15.0 | 0.00 | 0.00 | 0.00 | 24 | 1006.7 |
| 20260503224611 | 99 | 190 | 5.0 | 12.0 | 0.00 | 0.00 | 0.00 | 24 | 1006.6 |
| 20260503224504 | 99 | 190 | 4.0 | 12.0 | 0.00 | 0.00 | 0.00 | 24 | 1006.6 |
| 20260503224004 | 99 | 190 | 7.0 | 12.0 | 0.00 | 0.00 | 0.00 | 24 | 1006.7 |